Location: Glencliff
(36.1226°N, 86.7183°W)
Time: 06:43:50
(UTC+00:00)

USA 186 - Pass Details

Date: 25 August 2019
Orbit: 263 x 451 km, 96.9° (Epoch: 14 September)

Event Time Altitude Azimuth Distance (km) Brightness Sun altitude
Exits shadow 01:52:43 13° 207° (SSW) 1,029 3.7 -17.2°
Maximum altitude 01:54:30 26° 264° (W) 651 3.3 -17.5°
Drops below altitude 10° 01:56:48 10° 325° (NW) 1,245 5.1 -17.9°
Sets 01:58:56 0° 338° (NNW) 2,126 6.2 -18.3°
